Regional Weather Roundup
Issued by NWS

Home | Current Version | Previous Version | Graphics & Text | Print | Product List | Glossary On
Versions: 1 2 3 4 5 6 7 8 9 10 11 12 13 14 15 16 17 18 19 20 21 22 23 24 25 26 27 28 29 30 31 32 33 34 35 36 37 38 39 40 41 42 43 44 45 46 47 48 49 50
000
ASUS43 KBIS 250810
RWRND

NORTH DAKOTA REGIONAL WEATHER ROUNDUP
NATIONAL WEATHER SERVICE BISMARCK ND
300 AM CDT THU MAY 25 2017

NOTE: "FAIR" INDICATES FEW OR NO CLOUDS BELOW 12,000 FEET WITH NO
SIGNIFICANT WEATHER AND/OR OBSTRUCTIONS TO VISIBILITY.


NDZ001>003-009>011-017-250900-
NORTHWEST NORTH DAKOTA

CITY           SKY/WX    TMP DP  RH WIND       PRES   REMARKS
WILLISTON      FAIR      49  47  93 SW8       29.37S
MINOT          LGT RAIN  55  50  83 SE10      29.40F
MINOT AFB      CLOUDY    54  53  95 S7        29.39F
$$

NDZ018>021-031>035-040>046-250900-
SOUTHWEST NORTH DAKOTA

CITY           SKY/WX    TMP DP  RH WIND       PRES   REMARKS
BISMARCK       LGT RAIN  54  48  80 SE15      29.41F
DICKINSON      CLOUDY    50  47  89 NE9       29.37F
GARRISON         N/A     51  48  89 SE7       29.41F
HETTINGER ARPT CLEAR     51  48  89 N8        29.39F
$$

NDZ004>008-012>016-024-026-027-054-250900-
NORTHEAST NORTH DAKOTA

CITY           SKY/WX    TMP DP  RH WIND       PRES   REMARKS
GRAND FORKS    PTCLDY    50  43  77 SE10      29.60S
GRND FRKS AFB  PTCLDY    49  42  76 SE10      29.60R
DEVILS LAKE    FAIR      51  43  74 SE21      29.54S
$$

NDZ022-023-025-028>030-036>039-047>053-250900-
SOUTHEAST NORTH DAKOTA

CITY           SKY/WX    TMP DP  RH WIND       PRES   REMARKS
FARGO          PTCLDY    53  42  66 SE13      29.61R
JAMESTOWN      FAIR      50  42  74 SE15      29.53F
$$





USA.gov is the U.S. government's official web portal to all federal, state and local government web resources and services.